User: anonymous
Location: Ostrava
(49.8330°N, 18.2830°E)
Time: 14:14:28
(UTC+02:00)
Language:

Cosmos 2221 - Orbit

View from above orbital plane
View from above orbital plane
View from above satellite
View from above satellite

Ground track
Ground track

The orbit data is extracted from the following two-line orbital elements,

1 22236U 92080A   14273.44758902  .00001974  00000-0  22236-3 0  2688
2 22236 082.5067 274.1316 0018174 049.4144 310.8650 14.86046179180071
Epoch (UTC): 30 September 2014 10:44:31
Eccentricity: 0.0018174
inclination: 82.5067°
perigee height: 597 km
apogee height: 623 km
right ascension of ascending node: 274.1316°
argument of perigee: 49.4144°
revolutions per day: 14.86046179
mean anomaly at epoch: 310.8650°
orbit number at epoch: 18007

The dashed part of the orbit path shows where the satellite is in the earth's shadow,  

DLR